Wind_Speed
7 8 8 8 9 9 9 7 6 6 5 4 3 5 7 8 10 7 5 3 7 9 7 11 12 11 11 14 14 10 12 9 7 5 5 9 9 9 8 7 15 16 11 13 17
5 6 7 7 7 8 7 7 6 6 5 5 4 6 9 10 10 6 4 8 10 8 13 10 13 12 11 16 14 12 10 9 6 5 9 9 7 10 8 5 11 12 18 15 14
4 4 5 6 6 6 6 6 6 5 5 5 5 9 12 13 11 7 7 12 16 21 12 13 7 9 15 17 14 11 11 8 4 6 9 8 7 7 10 6 5 12 19 17 16
4 4 4 5 5 5 5 5 5 5 5 6 7 10 14 14 8 9 13 12 13 16 15 11 9 9 17 14 13 10 5 10 6 6 8 8 5 6 6 6 13 10 16 16 16
4 4 4 4 4 5 5 5 5 5 6 7 9 12 16 13 11 11 16 16 16 16 17 12 7 15 19 16 13 8 5 11 7 5 3 4 5 4 5 6 14 17 17 19 15
4 4 4 4 4 4 4 4 5 5 6 8 11 15 16 13 14 14 17 15 14 14 14 13 15 14 15 14 9 7 11 11 8 5 5 2 1 1 6 5 9 17 17 16 15
4 3 4 4 4 4 4 5 5 6 6 8 14 17 17 14 14 18 19 14 11 10 10 10 12 17 16 9 8 11 9 9 8 8 7 7 7 3 2 3 7 14 16 14 16
4 3 3 4 4 3 3 5 6 6 7 9 14 18 16 14 14 19 22 16 11 10 8 8 6 5 11 7 6 6 6 10 14 10 7 8 4 5 1 3 7 11 16 19 19
5 4 3 3 3 3 5 7 8 8 7 10 14 16 13 10 16 21 23 19 13 12 13 10 7 6 9 7 5 4 3 12 12 10 9 9 3 7 6 6 7 10 14 17 20
5 5 3 3 3 3 5 8 10 9 9 11 15 13 12 13 19 23 27 24 18 11 14 11 9 8 7 10 9 6 8 5 11 14 14 11 9 2 6 5 6 8 13 16 17
7 6 4 5 5 5 5 7 9 10 13 17 17 10 11 11 19 24 28 27 22 14 16 12 11 8 5 11 10 10 10 12 7 8 13 9 8 5 5 6 6 8 9 12 15
8 8 7 7 9 7 5 5 7 8 14 14 14 11 11 12 16 24 26 23 22 16 16 16 13 4 10 10 7 7 10 6 8 10 10 10 9 6 6 3 3 4 7 11 14
9 10 10 10 13 12 10 8 7 4 12 14 12 14 12 10 10 14 21 24 21 18 14 16 11 4 6 11 8 6 10 10 6 9 11 6 12 13 12 11 12 11 7 9 10
10 10 12 12 13 15 16 12 11 6 5 9 17 14 15 14 11 9 12 14 12 11 13 14 10 8 8 10 8 8 8 5 4 11 7 14 4 9 16 16 16 16 16 12 13
11 10 12 14 15 16 15 13 11 3 2 4 16 13 15 16 7 14 15 13 11 8 12 10 8 8 9 6 5 4 7 5 3 5 6 6 7 6 13 20 19 21 18 15 15
13 9 12 14 16 17 15 13 9 3 6 6 15 17 19 15 9 11 17 14 10 8 8 10 9 7 7 8 8 7 8 8 11 10 4 2 10 4 5 17 22 24 27 22 17
13 10 11 13 17 18 16 13 7 7 4 7 16 16 20 17 15 13 14 13 13 10 12 10 9 6 5 6 8 8 9 2 2 1 5 3 3 3 8 12 19 20 28 28 19
14 11 10 13 16 20 18 16 9 6 5 5 16 19 21 18 18 17 15 14 14 11 15 12 7 6 4 2 6 9 14 7 5 4 3 3 3 5 8 3 8 10 16 28 24
14 10 8 9 15 21 22 22 8 6 9 8 11 15 20 20 16 18 16 11 12 11 7 9 9 13 11 1 3 7 7 8 4 5 3 3 2 3 3 3 5 6 17 23 22
10 7 5 6 12 18 26 25 14 11 9 7 5 12 19 24 23 16 16 15 13 9 10 8 9 14 7 3 2 6 8 4 5 4 2 3 4 3 5 7 6 11 16 18 24
6 2 2 3 8 14 27 25 20 14 8 2 6 3 12 18 25 18 16 12 12 9 11 12 10 10 7 3 6 5 3 2 4 4 6 3 2 5 11 13 12 13 14 13 11
5 3 3 6 7 4 14 23 28 26 23 17 15 12 8 15 21 28 20 16 17 16 11 11 6 8 10 9 6 6 6 4 3 5 5 5 5 9 16 17 16 17 16 15 13
7 7 5 5 4 4 5 9 12 17 25 30 28 19 7 6 15 24 23 21 19 16 13 10 7 9 7 4 5 5 3 5 6 7 8 7 8 14 19 20 19 18 18 15 12
11 7 7 6 6 7 10 12 10 9 10 20 24 21 19 16 17 24 27 22 19 14 12 10 13 11 10 7 9 6 5 6 8 8 13 10 24 24 24 25 23 20 18 17 16
8 12 10 7 4 7 7 4 8 10 12 12 16 21 18 15 22 27 29 26 19 16 14 10 7 8 11 13 11 10 6 4 5 5 8 14 27 29 26 26 25 24 23 22 21
7 8 10 6 5 4 2 10 11 10 13 16 16 20 17 13 22 27 31 29 23 16 10 6 11 12 9 7 5 7 9 8 7 8 9 9 28 26 25 22 19 18 17 16 16
6 11 12 9 5 1 3 9 4 4 3 13 17 26 14 14 12 22 21 18 12 8 10 10 11 9 5 7 5 7 9 10 9 8 12 21 26 30 25 21 18 17 16 18 20
Wind_Direction
274 275 273 270 267 264 262 261 257 256 253 243 226 162 147 140 132 136 116 109 140 153 173 191 173 161 142 156 158 158 143 144 115 123 130 138 126 108 104 131 146 165 176 171 159
277 271 274 274 271 265 258 254 250 249 240 221 198 163 153 146 141 151 119 91 94 74 123 141 173 166 156 160 162 157 148 135 112 71 98 133 100 52 71 126 165 178 168 161 149
288 279 275 276 272 267 256 250 244 234 225 206 181 163 156 152 151 144 126 98 104 85 75 78 151 181 157 158 166 174 172 177 136 84 79 94 108 77 50 73 105 198 169 160 154
295 292 284 279 274 266 249 238 235 222 211 200 175 163 156 150 153 150 129 124 95 86 70 81 127 160 173 163 163 151 184 189 169 112 94 79 71 122 55 72 118 142 161 154 128
305 302 295 284 277 268 252 232 222 212 203 197 176 165 158 158 159 158 139 128 112 99 80 96 155 153 158 144 149 150 184 162 159 130 98 76 58 62 54 52 115 150 154 147 133
310 308 305 295 282 263 247 228 210 201 195 187 179 165 163 161 159 166 149 138 121 107 91 93 85 142 138 141 154 133 140 165 185 231 184 171 182 170 11 72 114 154 155 145 130
300 310 308 308 293 265 238 214 205 191 188 184 176 168 163 165 167 172 158 148 128 106 98 81 93 122 148 132 131 133 158 156 179 203 189 194 226 224 354 115 128 148 162 163 139
294 301 301 307 301 273 218 202 194 189 180 176 177 177 168 166 177 177 173 161 152 144 141 132 143 143 151 144 139 164 165 161 178 200 222 209 239 220 146 96 138 154 159 159 139
285 283 284 285 285 269 212 191 188 188 176 171 173 174 171 184 182 187 181 182 176 160 168 168 191 193 193 191 205 211 230 207 204 220 245 233 306 216 196 129 142 159 162 152 150
278 270 263 249 255 243 214 192 185 181 170 159 158 168 183 180 183 183 184 197 197 184 185 184 194 194 182 197 218 249 241 235 214 217 226 240 245 238 175 155 116 157 171 161 154
267 256 238 232 221 221 212 194 182 184 182 172 175 175 181 194 187 181 192 202 206 203 196 195 199 208 236 253 271 274 261 263 270 233 221 230 224 224 176 167 168 155 177 165 151
263 248 233 218 213 211 183 176 196 197 188 192 193 180 182 160 177 189 197 203 207 209 199 205 207 202 245 251 207 198 244 223 227 232 214 230 241 247 245 240 173 140 159 164 164
275 249 234 217 220 223 226 204 210 212 213 215 203 191 190 172 164 188 206 212 216 221 210 210 178 204 169 146 152 197 215 194 175 188 207 221 239 245 242 236 217 203 184 178 153
283 261 238 225 224 230 237 237 254 261 258 226 215 203 192 176 174 166 172 184 192 199 205 218 210 201 178 168 174 150 149 155 206 199 198 223 268 253 249 241 228 216 205 186 162
287 273 251 231 225 226 237 241 245 242 331 212 199 201 197 202 182 186 181 182 176 176 190 202 205 201 196 218 219 214 190 215 196 197 217 222 237 278 255 237 230 219 210 196 190
299 276 258 237 226 227 222 220 233 236 251 185 183 202 202 198 169 188 191 201 211 241 205 187 173 189 211 235 249 258 241 245 251 256 252 287 220 233 203 236 243 226 222 212 202
310 295 258 239 224 222 213 203 200 212 213 189 192 199 197 198 198 197 192 210 222 232 206 200 193 185 201 226 240 231 229 249 296 223 200 280 177 243 290 242 242 241 221 219 208
310 305 267 242 226 219 205 190 210 236 200 194 206 207 205 201 200 203 213 226 217 197 195 204 189 200 150 224 252 232 223 216 209 189 179 105 1 309 333 262 219 225 224 223 208
318 312 280 245 223 215 204 197 218 217 205 203 218 214 212 206 195 205 218 210 204 196 192 185 192 193 188 198 222 197 191 200 168 115 97 68 67 343 298 23 144 189 211 217 210
318 316 292 232 217 209 205 210 221 200 197 198 198 207 208 211 216 223 217 214 221 218 212 197 175 179 181 183 171 220 201 203 203 131 133 60 63 354 157 172 166 182 198 191 198
313 345 34 163 200 203 208 215 218 223 232 245 181 158 204 210 218 216 208 197 185 180 191 201 176 164 177 182 179 168 191 193 140 145 145 130 156 176 144 147 153 166 164 167 174
252 230 97 106 95 146 223 229 236 238 239 252 271 280 277 218 218 216 203 205 192 187 181 179 175 140 125 122 151 192 185 192 212 183 130 144 143 153 162 159 163 155 156 162 173
220 217 171 158 170 202 259 267 265 264 255 245 257 269 242 267 223 217 208 199 189 172 173 165 163 128 129 149 169 195 175 175 182 156 161 154 157 169 174 167 167 174 173 180 193
203 198 203 207 245 281 292 287 277 275 253 235 238 246 253 268 204 189 187 177 179 182 184 187 167 194 205 202 201 187 160 170 205 211 184 199 170 179 189 184 185 192 198 204 209
215 216 214 198 243 300 299 300 290 271 236 228 217 222 240 224 194 179 186 164 166 186 185 192 186 201 199 196 205 211 221 242 257 239 205 217 185 182 188 193 196 204 212 217 223
243 205 196 186 222 286 331 324 285 245 240 232 204 195 211 209 212 189 194 180 177 186 198 195 170 182 169 181 218 259 259 267 262 246 245 204 181 180 187 194 205 214 224 235 245
250 206 195 180 174 59 346 4 69 266 225 219 189 174 187 182 175 166 166 167 177 184 159 137 144 167 187 214 237 261 270 263 261 240 230 195 194 186 191 201 211 224 242 258 270
Height
3154 3153 3153 3154 3154 3154 3155 3155 3156 3156 3156 3156 3157 3159 3159 3160 3161 3162 3162 3163 3163 3162 3161 3161 3165 3166 3167 3169 3170 3171 3172 3172 3173 3173 3175 3176 3177 3178 3179 3180 3181 3182 3186 3188 3189
3153 3153 3152 3152 3152 3153 3153 3154 3155 3155 3156 3156 3157 3159 3160 3161 3163 3163 3163 3162 3163 3160 3162 3163 3165 3167 3169 3170 3172 3173 3174 3174 3175 3177 3178 3178 3180 3181 3181 3181 3182 3183 3186 3189 3191
3153 3152 3151 3151 3151 3152 3152 3152 3153 3154 3154 3155 3157 3159 3160 3161 3163 3164 3165 3166 3167 3165 3166 3165 3167 3168 3171 3173 3174 3174 3175 3176 3178 3179 3181 3180 3182 3184 3184 3184 3183 3185 3187 3191 3193
3152 3151 3151 3151 3150 3151 3151 3151 3152 3153 3154 3155 3156 3158 3160 3162 3165 3164 3166 3168 3169 3168 3169 3168 3168 3170 3172 3174 3175 3178 3177 3178 3179 3181 3182 3183 3185 3185 3187 3186 3185 3187 3192 3194 3195
3152 3151 3150 3150 3150 3150 3150 3150 3151 3152 3153 3154 3156 3158 3161 3163 3164 3165 3168 3170 3172 3172 3172 3171 3168 3170 3173 3176 3178 3178 3180 3180 3182 3183 3185 3186 3186 3187 3188 3188 3186 3190 3194 3195 3195
3151 3150 3150 3149 3149 3149 3150 3150 3151 3151 3152 3154 3155 3158 3161 3164 3164 3165 3168 3172 3173 3174 3175 3173 3171 3170 3176 3178 3180 3181 3182 3182 3182 3185 3187 3188 3188 3188 3189 3189 3189 3192 3195 3196 3197
3150 3149 3149 3149 3148 3148 3149 3149 3150 3151 3152 3154 3155 3158 3161 3164 3164 3167 3169 3172 3173 3174 3174 3174 3174 3176 3178 3180 3181 3182 3183 3183 3184 3185 3187 3188 3190 3189 3190 3191 3192 3193 3196 3197 3199
3149 3149 3149 3148 3148 3147 3148 3149 3149 3150 3152 3153 3155 3158 3161 3164 3165 3167 3170 3172 3173 3175 3176 3177 3177 3178 3180 3181 3182 3183 3184 3184 3185 3186 3188 3190 3190 3190 3190 3192 3193 3195 3197 3199 3201
3148 3148 3148 3147 3147 3146 3146 3147 3148 3150 3151 3153 3156 3159 3162 3163 3165 3167 3169 3172 3174 3176 3177 3178 3179 3179 3180 3181 3183 3183 3183 3184 3185 3187 3188 3189 3189 3190 3191 3193 3194 3196 3198 3200 3202
3147 3147 3147 3147 3146 3146 3146 3147 3148 3150 3152 3154 3157 3161 3161 3162 3162 3166 3168 3170 3173 3175 3177 3178 3179 3179 3180 3181 3181 3183 3184 3185 3186 3187 3188 3189 3190 3191 3192 3193 3195 3197 3200 3201 3203
3145 3145 3146 3146 3146 3146 3147 3148 3152 3153 3152 3153 3155 3157 3158 3160 3161 3164 3167 3169 3171 3174 3176 3177 3179 3179 3181 3181 3182 3182 3183 3185 3186 3187 3189 3189 3190 3192 3193 3194 3194 3197 3199 3201 3204
3144 3144 3145 3145 3145 3145 3147 3149 3150 3152 3153 3153 3155 3157 3158 3158 3160 3163 3166 3170 3171 3173 3175 3177 3178 3179 3178 3179 3180 3181 3182 3183 3185 3186 3189 3189 3190 3191 3193 3195 3196 3197 3199 3201 3202
3142 3142 3143 3144 3144 3146 3146 3148 3149 3151 3152 3154 3154 3156 3158 3160 3160 3162 3164 3166 3169 3171 3174 3175 3178 3178 3178 3178 3179 3180 3181 3182 3184 3185 3187 3189 3189 3189 3191 3193 3195 3197 3199 3201 3203
3139 3140 3141 3142 3146 3144 3145 3147 3149 3151 3151 3152 3152 3155 3157 3158 3159 3160 3162 3165 3167 3170 3172 3174 3176 3176 3177 3178 3180 3180 3181 3182 3183 3184 3186 3187 3187 3186 3187 3189 3191 3194 3197 3200 3202
3137 3137 3138 3139 3141 3142 3145 3146 3147 3150 3151 3149 3149 3152 3153 3156 3158 3159 3161 3164 3166 3168 3171 3173 3173 3174 3176 3177 3179 3180 3180 3181 3182 3184 3185 3185 3187 3183 3183 3184 3186 3190 3195 3198 3200
3134 3135 3134 3136 3138 3140 3142 3145 3148 3152 3146 3145 3146 3148 3151 3153 3156 3158 3160 3163 3164 3166 3167 3169 3171 3172 3173 3174 3176 3177 3178 3180 3180 3181 3182 3182 3184 3182 3182 3181 3182 3187 3191 3195 3199
3132 3131 3131 3132 3135 3137 3140 3144 3149 3146 3144 3145 3144 3146 3148 3151 3154 3156 3158 3160 3162 3164 3166 3168 3169 3171 3172 3173 3174 3176 3177 3179 3180 3181 3180 3179 3180 3179 3178 3177 3177 3179 3186 3193 3200
3129 3128 3128 3129 3131 3134 3138 3143 3143 3140 3140 3141 3142 3144 3146 3149 3152 3154 3156 3158 3159 3161 3163 3165 3169 3170 3171 3172 3172 3173 3175 3176 3180 3181 3177 3178 3178 3177 3176 3174 3174 3177 3182 3189 3196
3126 3126 3125 3126 3128 3131 3136 3138 3137 3136 3138 3139 3139 3142 3145 3147 3150 3152 3154 3156 3157 3159 3162 3162 3165 3167 3169 3170 3171 3171 3172 3173 3173 3176 3176 3179 3180 3179 3177 3176 3173 3175 3181 3186 3193
3124 3123 3123 3123 3125 3128 3132 3133 3134 3134 3135 3136 3137 3138 3140 3144 3147 3149 3151 3153 3155 3157 3159 3161 3163 3165 3167 3168 3169 3169 3171 3171 3170 3176 3179 3178 3178 3179 3177 3177 3178 3178 3180 3184 3188
3124 3123 3122 3122 3124 3126 3128 3130 3132 3133 3134 3135 3135 3136 3138 3140 3143 3146 3149 3151 3153 3155 3157 3158 3161 3165 3166 3166 3166 3169 3168 3169 3169 3170 3172 3180 3179 3178 3178 3178 3179 3180 3182 3186 3188
3123 3124 3123 3123 3126 3126 3127 3128 3129 3130 3132 3133 3133 3135 3136 3137 3139 3142 3146 3149 3151 3153 3155 3158 3160 3163 3165 3165 3165 3166 3166 3167 3167 3170 3170 3171 3178 3177 3179 3179 3181 3182 3184 3185 3188
3122 3123 3123 3123 3125 3125 3125 3125 3125 3125 3127 3130 3131 3134 3134 3135 3138 3139 3143 3146 3149 3151 3154 3157 3159 3162 3166 3168 3166 3165 3165 3165 3166 3166 3168 3169 3176 3176 3179 3181 3182 3184 3184 3186 3188
3122 3123 3122 3122 3123 3124 3123 3122 3122 3122 3122 3124 3126 3130 3132 3132 3135 3136 3139 3144 3148 3150 3152 3155 3156 3158 3161 3162 3164 3165 3165 3165 3165 3165 3165 3166 3168 3172 3176 3180 3182 3183 3184 3185 3186
3119 3120 3121 3121 3123 3123 3121 3121 3120 3118 3119 3120 3120 3124 3127 3128 3131 3133 3137 3141 3146 3148 3150 3152 3154 3156 3158 3159 3160 3161 3163 3164 3164 3164 3164 3164 3166 3169 3173 3177 3178 3180 3181 3182 3183
3118 3119 3120 3121 3122 3123 3121 3119 3115 3115 3115 3116 3116 3120 3123 3126 3128 3131 3135 3138 3142 3147 3149 3150 3152 3154 3156 3158 3159 3160 3160 3161 3162 3162 3163 3163 3166 3170 3172 3174 3176 3177 3178 3179 3180
3115 3116 3119 3121 3121 3122 3121 3117 3115 3114 3113 3111 3112 3116 3123 3125 3128 3134 3138 3140 3143 3146 3147 3149 3151 3153 3155 3157 3158 3159 3158 3159 3159 3160 3160 3160 3163 3166 3169 3172 3173 3175 3175 3176 3175